Location: Cheyres
(46.8153°N, 6.7877°E)
Time: 03:32:18
(UTC+00:00)

CUBEBUG 2 - Pass Details

Date: 04 July 2022
Orbit: 584 x 692 km, 97.7° (Epoch: 11 August)

Event Time Altitude Azimuth Distance (km) Brightness Sun altitude
Rises 01:46:38 0° 24° (NNE) 2,842 ? -14.4°
Reaches altitude 10° 01:49:05 10° 37° (NE) 1,947 ? -14.2°
Maximum altitude 01:52:38 26° 95° (E) 1,214 ? -13.9°
Drops below altitude 10° 01:56:14 10° 152° (SSE) 1,980 ? -13.6°
Enters shadow 01:57:17 - 159° (SSE) 2,352 ? -13.5°
